Dauntless Aviation
Airports Europe France
LFIY

Saint Jean d'Angely

FRANCE

Airport Info
Suggest Updated Information for this Airport

Location

Latitude / Longitude: 45°57'59"N / 0°31'31"W
  45°57.984'N / 0°31.518'W
  45.9664 / -0.5253

Runway Information

Runway 10 /28

Dimensions: 2789 x 164 ft.
Surface: U
 
Runway 10
Runway 28
Latitude: 45.966636 45.965728
Longitude: -0.528086 -0.518369
Elevation: 243 ft. 243 ft.
Runway true heading: 95.7 275.7
 

Instrument Procedures

IAPs (Instrument Approach Procedures)

  Visual Approch Chart
Satellite photo at:
Airport distance calculator
From:
Weather Reports

METAR

LFBG
20.0nm SE
LFBG 280630Z AUTO 25002KT 9999 FEW015 BKN024 19/17 Q1020
LFBH
27.2nm W
LFBH 280630Z AUTO 19004KT 9999 OVC036 20/18 Q1019 NOSIG
LFBU
34.5nm E
LFBU 280630Z AUTO VRB02KT 9999 FEW008/// SCT012/// BKN150/// ///CB 18/15 Q1020 TEMPO 4500 -TSRA BECMG SCT025

TAF

LFBH
27.2nm W
TAF LFBH 280500Z 2806/2906 28005KT 9999 BKN020 BECMG 2810/2812 27015KT SCT030
LFBU
34.5nm E
TAF LFBU 280500Z 2806/2906 28005KT 9999 BKN015 TEMPO 2806/2807 BKN007 PROB30 TEMPO 2806/2808 4500 -TSRA SCT060CB BECMG 2807/2810 SCT025 BECMG 2813/2816 SCT045
Safelog

 

Dauntless Aviation

© 2007-2016 Dauntless Aviation, all rights reserved
Information provided via PilotNav comes from a variety of official and unofficial data sources. As errors are possible, do not use PilotNav for primary flight planning purposes. Verify any information that you receive via PilotNav with current and canonical charts and other official documents. The material in this database is subject to database copyrights held by Dauntless Aviation and may not be copied without the express permission of Dauntless Aviation - licenses for use of part of all of this data are available for purchase; enquire via the Dauntless Aviation helpdesk. A number of mechanisms and markers exist in the database to protect against and identify infringement / copyright. Automated queries against this website are stictly prohibited, and all activity is logged and analyzed.